TimeEST,TemperatureF,Dew PointF,Humidity,Sea Level PressureIn,VisibilityMPH,Wind Direction,Wind SpeedMPH,Gust SpeedMPH,PrecipitationIn,Events,Conditions,WindDirDegrees,DateUTC
12:25 AM,26.4,17.4,69,30.36,-9999.0,ENE,9.2,18.4,N/A,,Unknown,60,2013-03-07 05:25:00
1:25 AM,26.2,18.0,71,30.37,-9999.0,East,8.1,17.3,N/A,,Unknown,80,2013-03-07 06:25:00
2:25 AM,25.9,17.2,70,30.38,-9999.0,ENE,9.2,17.3,N/A,,Unknown,70,2013-03-07 07:25:00
3:25 AM,25.9,17.6,71,30.39,-9999.0,ENE,6.9,15.0,N/A,,Unknown,70,2013-03-07 08:25:00
4:25 AM,25.9,18.0,72,30.37,-9999.0,Variable,5.8,13.8,N/A,,Unknown,0,2013-03-07 09:25:00
5:25 AM,25.7,18.0,73,30.36,-9999.0,NE,6.9,13.8,N/A,,Unknown,40,2013-03-07 10:25:00
6:25 AM,25.7,18.1,73,30.36,-9999.0,ENE,6.9,17.3,N/A,,Unknown,60,2013-03-07 11:25:00
7:25 AM,25.7,18.1,73,30.37,-9999.0,ENE,11.5,19.6,N/A,,Unknown,60,2013-03-07 12:25:00
8:25 AM,26.2,18.1,71,30.38,-9999.0,Variable,6.9,19.6,N/A,,Unknown,0,2013-03-07 13:25:00
9:25 AM,26.8,18.3,70,30.38,-9999.0,NE,8.1,18.4,N/A,,Unknown,40,2013-03-07 14:25:00
10:25 AM,27.3,18.7,70,30.37,-9999.0,East,10.4,16.1,N/A,,Unknown,80,2013-03-07 15:25:00
11:25 AM,28.4,18.9,67,30.36,-9999.0,ENE,6.9,17.3,N/A,,Unknown,70,2013-03-07 16:25:00
12:28 PM,28.4,18.1,65,30.35,-9999.0,NE,9.2,16.1,N/A,,Unknown,40,2013-03-07 17:28:00
1:25 PM,29.5,18.5,64,30.33,-9999.0,NE,9.2,16.1,N/A,,Unknown,40,2013-03-07 18:25:00
2:44 PM,29.8,18.3,62,30.32,-9999.0,ENE,11.5,17.3,N/A,,Unknown,60,2013-03-07 19:44:00
3:26 PM,30.2,18.7,62,30.31,-9999.0,ENE,8.1,16.1,N/A,,Unknown,60,2013-03-07 20:26:00
4:25 PM,30.0,18.9,63,30.32,-9999.0,Variable,4.6,17.3,N/A,,Unknown,0,2013-03-07 21:25:00
5:25 PM,29.1,18.7,65,30.32,-9999.0,NE,8.1,15.0,N/A,,Unknown,40,2013-03-07 22:25:00
6:28 PM,28.9,19.8,69,30.32,-9999.0,Variable,5.8,15.0,N/A,,Unknown,0,2013-03-07 23:28:00
7:25 PM,28.4,20.1,71,30.32,-9999.0,Variable,6.9,15.0,N/A,,Unknown,0,2013-03-08 00:25:00
8:25 PM,27.9,20.3,73,30.32,-9999.0,Variable,5.8,-,N/A,,Unknown,0,2013-03-08 01:25:00
9:25 PM,27.5,20.7,75,30.31,-9999.0,NE,6.9,15.0,N/A,,Unknown,40,2013-03-08 02:25:00
10:25 PM,27.3,20.7,76,30.30,-9999.0,Variable,5.8,15.0,N/A,,Unknown,0,2013-03-08 03:25:00
11:25 PM,26.8,20.5,77,30.29,-9999.0,Variable,6.9,-,N/A,,Unknown,0,2013-03-08 04:25:00